Year,Month,Day,Hour,Minute,Value (Times are PST for temperature in C)
2011,10,18,12,30,10.20
2011,10,18,12,31,10.20
2011,10,18,12,32,10.30
2011,10,18,12,33,10.40
2011,10,18,12,34,10.40
2011,10,18,12,35,10.40
2011,10,18,12,36,10.40
2011,10,18,12,37,10.50
2011,10,18,12,38,10.50
2011,10,18,12,39,10.60
2011,10,18,12,40,10.60
2011,10,18,12,41,10.60
2011,10,18,12,42,10.60
2011,10,18,12,43,10.60
2011,10,18,12,44,10.60
2011,10,18,12,45,10.60
2011,10,18,12,46,10.60
2011,10,18,12,47,10.70
2011,10,18,12,48,10.70
2011,10,18,12,49,10.70
2011,10,18,12,50,10.80
2011,10,18,12,51,10.80
2011,10,18,12,52,10.80
2011,10,18,12,53,10.80
2011,10,18,12,54,10.90
2011,10,18,12,55,11.00
2011,10,18,12,56,11.10
2011,10,18,12,57,11.10
2011,10,18,12,58,11.20
2011,10,18,12,59,11.20
2011,10,18,13,00,11.20
2011,10,18,13,01,11.30
2011,10,18,13,02,11.40
2011,10,18,13,03,11.50
2011,10,18,13,04,11.60
2011,10,18,13,05,11.60
2011,10,18,13,06,11.70
2011,10,18,13,07,11.80
2011,10,18,13,08,11.80
2011,10,18,13,09,11.80
2011,10,18,13,10,11.80
2011,10,18,13,11,11.80
2011,10,18,13,12,11.80
2011,10,18,13,13,11.70
2011,10,18,13,14,11.70
2011,10,18,13,15,11.60
2011,10,18,13,16,11.60
2011,10,18,13,17,11.70
2011,10,18,13,18,11.70
2011,10,18,13,19,11.80
2011,10,18,13,20,11.80
2011,10,18,13,21,11.80
2011,10,18,13,22,11.90
2011,10,18,13,23,12.00
2011,10,18,13,24,12.00
2011,10,18,13,25,12.10
2011,10,18,13,26,12.20
2011,10,18,13,27,12.20
2011,10,18,13,28,12.30
2011,10,18,13,29,12.30
2011,10,18,13,30,12.40
2011,10,18,13,31,12.50
2011,10,18,13,32,12.60
2011,10,18,13,33,12.70
2011,10,18,13,34,12.80
2011,10,18,13,35,13.00
2011,10,18,13,36,13.10
2011,10,18,13,37,13.20
2011,10,18,13,38,13.30
2011,10,18,13,39,13.40
2011,10,18,13,40,13.40
2011,10,18,13,41,13.50
2011,10,18,13,42,13.60
2011,10,18,13,43,13.70
2011,10,18,13,44,13.80
2011,10,18,13,45,13.90
2011,10,18,13,46,14.00
2011,10,18,13,47,14.10
2011,10,18,13,48,14.20
2011,10,18,13,49,14.20
2011,10,18,13,50,14.20
2011,10,18,13,51,14.10
2011,10,18,13,52,13.90
2011,10,18,13,53,13.70
2011,10,18,13,54,13.60
2011,10,18,13,55,13.40
2011,10,18,13,56,13.30
2011,10,18,13,57,13.30
2011,10,18,13,58,13.20
2011,10,18,13,59,13.10
2011,10,18,14,00,13.10
2011,10,18,14,01,13.20
2011,10,18,14,02,13.20
2011,10,18,14,03,13.20
2011,10,18,14,04,13.20
2011,10,18,14,05,13.20
2011,10,18,14,06,13.20
2011,10,18,14,07,13.30
2011,10,18,14,08,13.30
2011,10,18,14,09,13.40
2011,10,18,14,10,13.40
2011,10,18,14,11,13.40
2011,10,18,14,12,13.40
2011,10,18,14,13,13.40
2011,10,18,14,14,13.30
2011,10,18,14,15,13.30
2011,10,18,14,16,13.20
2011,10,18,14,17,13.20
2011,10,18,14,18,13.20
2011,10,18,14,19,13.20
2011,10,18,14,20,13.20
2011,10,18,14,21,13.20
2011,10,18,14,22,13.10
2011,10,18,14,23,13.20
2011,10,18,14,24,13.20
2011,10,18,14,25,13.20
2011,10,18,14,26,13.20
2011,10,18,14,27,13.30
2011,10,18,14,28,13.30
2011,10,18,14,29,13.20
2011,10,18,14,30,13.20
2011,10,18,14,31,13.20
2011,10,18,14,32,13.10
2011,10,18,14,33,13.10
2011,10,18,14,34,13.10
2011,10,18,14,35,13.10
2011,10,18,14,36,13.10
2011,10,18,14,37,13.10
2011,10,18,14,38,13.10
2011,10,18,14,39,13.10
2011,10,18,14,40,13.10
2011,10,18,14,41,13.10
2011,10,18,14,42,13.20
2011,10,18,14,43,13.20
2011,10,18,14,44,13.20
2011,10,18,14,45,13.20
2011,10,18,14,46,13.20
2011,10,18,14,47,13.30
2011,10,18,14,48,13.30
2011,10,18,14,49,13.30
2011,10,18,14,50,13.40
2011,10,18,14,51,13.40
2011,10,18,14,52,13.50
2011,10,18,14,53,13.60
2011,10,18,14,54,13.60
2011,10,18,14,55,13.70
2011,10,18,14,56,13.80
2011,10,18,14,57,13.80
2011,10,18,14,58,13.90
2011,10,18,14,59,13.90
2011,10,18,15,00,13.90
2011,10,18,15,01,13.90
2011,10,18,15,02,13.90
2011,10,18,15,03,13.90
2011,10,18,15,04,13.90
2011,10,18,15,05,13.90
2011,10,18,15,06,13.90
2011,10,18,15,07,14.00
2011,10,18,15,08,14.00
2011,10,18,15,09,14.10
2011,10,18,15,10,14.10
2011,10,18,15,11,14.20
2011,10,18,15,12,14.20
2011,10,18,15,13,14.30
2011,10,18,15,14,14.30
2011,10,18,15,15,14.30
2011,10,18,15,16,14.40
2011,10,18,15,17,14.40
2011,10,18,15,18,14.50
2011,10,18,15,19,14.50
2011,10,18,15,20,14.50
2011,10,18,15,21,14.60
2011,10,18,15,22,14.60
2011,10,18,15,23,14.60
2011,10,18,15,24,14.60
2011,10,18,15,25,14.60
2011,10,18,15,26,14.60
2011,10,18,15,27,14.60
2011,10,18,15,28,14.60
2011,10,18,15,29,14.60
2011,10,18,15,30,14.60
2011,10,18,15,31,14.60
2011,10,18,15,32,14.60
2011,10,18,15,33,14.70
2011,10,18,15,34,14.70
2011,10,18,15,35,14.70
2011,10,18,15,36,14.70
2011,10,18,15,37,14.80
2011,10,18,15,38,14.80
2011,10,18,15,39,14.80
2011,10,18,15,40,14.90
2011,10,18,15,41,15.00
2011,10,18,15,42,15.00
2011,10,18,15,43,15.00
2011,10,18,15,44,15.00
2011,10,18,15,45,15.00
2011,10,18,15,46,15.00
2011,10,18,15,47,15.00
2011,10,18,15,48,15.00
2011,10,18,15,49,15.00
2011,10,18,15,50,15.00
2011,10,18,15,51,15.00
2011,10,18,15,52,15.00
2011,10,18,15,53,15.00
2011,10,18,15,54,15.00
2011,10,18,15,55,15.00
2011,10,18,15,56,15.00
2011,10,18,15,57,15.00
2011,10,18,15,58,15.00
2011,10,18,15,59,15.00
2011,10,18,16,00,15.00
2011,10,18,16,01,15.00
2011,10,18,16,02,15.00
2011,10,18,16,03,15.00
2011,10,18,16,04,15.00
2011,10,18,16,05,15.00
2011,10,18,16,06,15.00
2011,10,18,16,07,15.00
2011,10,18,16,08,15.00
2011,10,18,16,09,15.00
2011,10,18,16,10,15.00
2011,10,18,16,11,15.00
2011,10,18,16,12,15.00
2011,10,18,16,13,15.00
2011,10,18,16,14,15.00
2011,10,18,16,15,15.00
2011,10,18,16,16,14.90
2011,10,18,16,17,14.90
2011,10,18,16,18,14.90
2011,10,18,16,19,14.80
2011,10,18,16,20,14.80
2011,10,18,16,21,14.80
2011,10,18,16,22,14.70
2011,10,18,16,23,14.70
2011,10,18,16,24,14.70
2011,10,18,16,25,14.70
2011,10,18,16,26,14.70
2011,10,18,16,27,14.70
2011,10,18,16,28,14.70
2011,10,18,16,29,14.70
2011,10,18,16,30,14.70
2011,10,18,16,31,14.70
2011,10,18,16,32,14.70
2011,10,18,16,33,14.70
2011,10,18,16,34,14.70
2011,10,18,16,35,14.70
2011,10,18,16,36,14.60
2011,10,18,16,37,14.60
2011,10,18,16,38,14.50
2011,10,18,16,39,14.40
2011,10,18,16,40,14.30
2011,10,18,16,41,14.20
2011,10,18,16,42,14.20
2011,10,18,16,43,14.10
2011,10,18,16,44,14.10
2011,10,18,16,45,14.00
2011,10,18,16,46,13.90
2011,10,18,16,47,13.90
2011,10,18,16,48,13.80
2011,10,18,16,49,13.80
2011,10,18,16,50,13.80
2011,10,18,16,51,13.70
2011,10,18,16,52,13.60
2011,10,18,16,53,13.60
2011,10,18,16,54,13.60
2011,10,18,16,55,13.50
2011,10,18,16,56,13.50
2011,10,18,16,57,13.50
2011,10,18,16,58,13.50
2011,10,18,16,59,13.50
2011,10,18,17,00,13.50
2011,10,18,17,01,13.50
2011,10,18,17,02,13.50
2011,10,18,17,03,13.50
2011,10,18,17,04,13.50
2011,10,18,17,05,13.60
2011,10,18,17,06,13.60
2011,10,18,17,07,13.60
2011,10,18,17,08,13.60
2011,10,18,17,09,13.50
2011,10,18,17,10,13.50
2011,10,18,17,11,13.50
2011,10,18,17,12,13.50
2011,10,18,17,13,13.60
2011,10,18,17,14,13.60
2011,10,18,17,15,13.60
2011,10,18,17,16,13.60
2011,10,18,17,17,13.60
2011,10,18,17,18,13.60
2011,10,18,17,19,13.60
2011,10,18,17,20,13.70
2011,10,18,17,21,13.70
2011,10,18,17,22,13.70
2011,10,18,17,23,13.70
2011,10,18,17,24,13.70
2011,10,18,17,25,13.70
2011,10,18,17,26,13.80
2011,10,18,17,27,13.80
2011,10,18,17,28,13.80
2011,10,18,17,29,13.80
2011,10,18,17,30,13.80
2011,10,18,17,31,13.90
2011,10,18,17,32,14.00
2011,10,18,17,33,14.00
2011,10,18,17,34,14.10
2011,10,18,17,35,14.10
2011,10,18,17,36,14.20
2011,10,18,17,37,14.20
2011,10,18,17,38,14.20
2011,10,18,17,39,14.30
2011,10,18,17,40,14.30
2011,10,18,17,41,14.30
2011,10,18,17,42,14.30
2011,10,18,17,43,14.40
2011,10,18,17,44,14.40
2011,10,18,17,45,14.40
2011,10,18,17,46,14.40
2011,10,18,17,47,14.40
2011,10,18,17,48,14.40
2011,10,18,17,49,14.40
2011,10,18,17,50,14.40
2011,10,18,17,51,14.40
2011,10,18,17,52,14.40
2011,10,18,17,53,14.40
2011,10,18,17,54,14.30
2011,10,18,17,55,14.30
2011,10,18,17,56,14.30
2011,10,18,17,57,14.30
2011,10,18,17,58,14.30
2011,10,18,17,59,14.30
2011,10,18,18,00,14.30
2011,10,18,18,01,14.30
2011,10,18,18,02,14.30
2011,10,18,18,03,14.30
2011,10,18,18,04,14.30
2011,10,18,18,05,14.30
2011,10,18,18,06,14.30
2011,10,18,18,07,14.30
2011,10,18,18,08,14.30
